Lid_Strength_Index
2 5 5 7 12 11 15 12 9 9 9 6 6 7 8 7 9 12 2 1 0 0 0 -1 -1 -1 -1 -1 -1 -2 -2 -1 -1 -1 -1 -1 -1 -1 -1 -1 -1 -1 -1 -1 -1 -1 -1 -1 -1
7 7 8 10 13 15 15 10 9 8 7 5 6 6 7 9 4 4 3 2 -0 -0 0 -0 -1 -1 -1 -1 -1 -1 -1 -2 -2 -2 -1 -1 -1 -1 -1 -1 -1 -1 -1 -1 -1 -1 -1 -1 -1
5 7 10 13 14 14 14 10 9 7 6 6 7 5 6 7 4 3 2 1 -0 0 0 -0 -1 -1 -1 -1 -1 -1 -1 -1 -2 -2 -2 -2 -2 -1 -1 -1 -1 -1 -1 -1 -1 -1 -1 -1 -1
8 9 10 13 14 12 10 9 8 8 7 5 6 8 5 3 3 2 1 0 0 0 -0 -1 -1 -1 -1 -1 -2 -2 -2 -2 -2 -2 -2 -2 -2 -1 -1 -1 -1 -1 -1 -1 -1 -1 -1 -1 -1
9 11 14 14 13 10 8 7 7 8 7 7 6 8 7 3 1 1 1 0 1 0 -0 -0 -2 -2 -1 -1 -2 -2 -2 -2 -2 -2 -2 -2 -2 -2 -2 -2 -2 -1 -1 -1 -1 -2 -2 -1 -1
10 12 15 15 14 9 7 7 7 7 7 6 7 7 7 2 2 1 1 1 0 0 0 -0 -1 -2 -2 -2 -2 -2 -2 -2 -2 -2 -2 -2 -2 -2 -2 -2 -2 -2 -2 -2 -2 -2 -2 -2 -1
11 13 14 14 13 10 8 6 8 8 7 7 5 8 6 4 2 1 1 1 0 -0 0 0 -0 -1 -1 -1 -1 -1 -1 -1 -1 -1 -2 -2 -2 -2 -1 -1 -2 -2 -2 -2 -2 -2 -1 -1 -1
9 13 14 15 14 12 7 6 6 7 7 4 4 9 8 4 1 1 1 1 1 0 -0 0 0 0 0 -0 -2 -2 -2 -2 -2 -2 -3 -2 -2 -2 -2 -1 -1 -2 -1 -1 -1 -1 -1 -1 -1
8 13 15 14 13 10 7 8 5 4 6 5 5 5 4 2 1 2 2 2 1 1 1 0 0 1 0 0 -1 -2 -2 -2 -3 -3 -4 -1 2 1 -1 -4 -4 -4 -3 -3 -2 -2 -3 -3 -4
9 13 13 11 10 8 7 7 6 6 6 7 6 4 3 2 3 4 3 3 3 2 2 1 0 0 1 -0 0 0 -0 0 -0 1 1 1 1 0 -1 -2 -4 -4 -4 -4 -4 -4 -4 -3 -0
11 12 11 9 9 6 6 6 6 7 9 7 7 5 4 3 4 4 4 4 6 4 5 3 1 0 1 1 1 1 1 1 1 1 1 1 1 1 1 1 1 1 -1 1 0 1 1 2 2
12 9 10 9 9 6 6 6 7 7 7 4 4 4 4 4 4 4 6 7 7 7 3 3 6 7 5 2 3 3 1 1 1 1 1 2 1 2 2 1 1 1 1 1 2 2 2 2 1
10 9 9 9 9 9 6 7 7 7 5 4 4 4 4 6 5 5 6 7 5 5 2 2 1 1 1 2 2 2 2 2 1 1 1 2 1 2 2 2 2 2 2 2 2 2 2 2 1
9 9 9 9 9 9 8 7 6 6 4 4 4 4 6 7 7 7 7 6 5 4 2 1 1 1 1 1 1 1 2 2 1 1 2 1 3 2 2 3 2 2 2 2 2 2 3 2 3
8 10 9 9 9 10 7 9 8 5 4 5 5 4 7 6 6 6 6 5 3 3 1 1 1 1 2 1 2 2 1 1 2 2 1 1 2 3 2 2 2 2 2 2 2 2 2 3 3
9 11 13 9 8 7 8 11 8 5 5 6 5 5 6 6 5 4 4 3 3 2 2 1 0 1 2 2 2 1 1 1 2 2 1 1 1 2 2 2 2 1 2 2 2 3 3 3 3
11 14 12 10 8 7 8 10 7 8 5 6 6 6 6 6 5 4 3 2 2 2 2 2 2 2 2 2 2 1 2 2 1 2 2 2 2 2 3 3 3 3 3 3 3 3 4 4 4
13 13 13 13 10 10 10 9 9 8 6 6 6 6 6 6 4 3 2 2 2 2 2 2 2 2 1 2 2 2 2 2 3 4 3 4 4 3 4 4 4 4 4 4 5 5 5 5 5
11 11 11 10 9 10 9 10 9 8 7 6 6 6 6 6 4 3 3 2 2 2 3 2 2 2 2 2 3 3 4 4 5 5 3 4 3 3 4 4 5 5 5 5 5 5 6 5 5
10 11 11 10 9 11 11 11 9 9 7 6 6 6 6 6 5 3 3 2 2 2 2 2 2 3 4 4 4 4 5 5 6 5 4 3 3 4 4 5 5 6 6 6 6 6 7 6 6
10 12 11 11 10 10 11 12 11 9 8 7 6 5 5 6 5 4 3 3 3 3 2 3 4 5 5 5 6 6 6 7 7 6 4 4 4 5 5 5 5 6 6 7 7 6 7 7 6
12 9 8 9 12 15 11 15 12 11 9 9 6 7 6 5 5 4 4 4 3 3 3 4 4 5 5 6 7 8 8 8 7 6 6 6 6 6 5 5 5 6 6 7 6 5 5 5 6
10 8 9 9 12 14 13 15 13 12 11 10 8 7 6 5 5 5 4 3 3 3 4 5 6 6 6 7 8 8 9 7 6 7 8 8 7 6 5 5 5 5 5 5 5 6 6 6 6
7 9 10 12 13 16 14 14 15 13 11 9 8 7 6 5 5 4 3 3 4 4 5 6 7 7 7 8 8 8 8 8 9 9 9 8 7 6 5 4 5 5 6 6 6 7 7 7 7
10 13 16 16 16 16 12 13 12 10 8 8 8 7 6 6 5 5 4 5 6 6 7 8 8 9 8 9 8 9 9 9 10 10 9 9 7 7 6 5 6 7 6 6 6 7 7 7 7
12 12 15 18 18 15 12 15 12 8 8 6 6 6 6 5 5 6 7 8 8 8 9 9 9 10 9 9 9 9 9 9 9 9 8 8 7 6 5 6 6 6 6 7 7 7 7 7 7
12 13 11 14 14 16 14 12 9 8 8 7 7 7 7 6 7 8 8 9 9 10 9 10 10 10 10 10 10 10 10 9 9 8 8 8 6 5 6 7 7 8 7 8 7 8 8 8 8
10 10 14 15 18 19 15 14 14 11 10 8 8 8 7 7 7 8 8 9 9 9 10 10 10 11 11 11 11 10 9 8 9 8 8 7 6 6 7 8 8 7 7 7 7 7 7 7 7
11 13 13 13 14 17 19 16 11 11 9 9 8 7 7 8 8 8 9 9 9 10 10 11 11 12 12 11 10 9 9 9 9 9 6 6 6 8 8 8 8 8 8 7 7 6 6 6 6
9 11 12 16 16 15 16 16 8 9 8 8 7 6 6 6 8 8 9 9 10 10 11 11 12 11 10 10 9 9 9 9 9 8 6 6 8 8 8 8 8 7 7 7 6 6 6 6 6